Regional Weather Roundup
Issued by NWS Upton, NY

Current Version | Previous Version | Graphics & Text | Print | Product List | Glossary On
Versions: 1 2 3 4 5 6 7 8 9 10 11 12 13 14 15 16 17 18 19 20 21 22 23 24 25 26 27 28 29 30 31 32 33 34 35 36 37 38 39 40 41 42 43 44 45 46 47 48 49 50
240
ASUS41 KOKX 182308
RWROKX

REGIONAL WEATHER ROUNDUP
NATIONAL WEATHER SERVICE NEW YORK NY
600 PM EST WED JAN 18 2017

NOTE: "FAIR" INDICATES FEW OR NO CLOUDS BELOW 12,000 FEET WITH NO
SIGNIFICANT WEATHER AND/OR OBSTRUCTIONS TO VISIBILITY.

NYZ071-072-176-178-NJZ106-104-190000-
NEW YORK CITY METRO AREA

CITY           SKY/WX    TMP DP  RH WIND       PRES   REMARKS
Central Park   CLOUDY    40  36  86 VRB5      30.04R
Wall St Helipt NOT AVBL
Bronx Bot Gard NOT AVBL
LaGuardia APRT CLOUDY    43  37  79 N8        30.02R
Kennedy INTL   CLOUDY    42  36  79 N12       30.03R
Breezy Point   NOT AVBL
Newark/Liberty CLOUDY    42  36  79 N10       30.02R
Teterboro      CLOUDY    42  36  79 N8        30.02R
$$

NYZ177-179-078>081-190000-
LONG ISLAND NEW YORK

CITY           SKY/WX    TMP DP  RH WIND       PRES   REMARKS
Jones Beach    NOT AVBL
Matinecock PT  NOT AVBL
Farmingdale    CLOUDY    40  37  89 N10       30.01R WCI  33
MacArthur/ISP  CLOUDY    39  37  92 N9        30.00R WCI  33
Shirley        CLOUDY    39  37  92 N10       30.00R WCI  32
Westhampton    CLOUDY    40  37  89 N8        30.00R WCI  34
Southampton    NOT AVBL
Bridgehampton  NOT AVBL
East Hampton   CLOUDY    40  38  95 N5        29.99R
Montauk          N/A     42  40  92 N9        29.99R
$$

NYZ052-065-067-190000-
HUDSON VALLEY

CITY           SKY/WX    TMP DP  RH WIND       PRES   REMARKS
White Plains   MOCLDY    39  36  89 NW8       30.00R WCI  33
Newburgh       CLOUDY    37  37 100 MISG      30.03R
Montgomery     CLOUDY    39  36  89 CALM      30.01R
Poughkeepsie   MOCLDY    37  36  96 N3        30.03R FOG
Albany         DRZL/FOG  35  33  92 CALM      30.04R VSB 1
$$

NJZ001-105-106-008-010-013-015-019>022-104-190000-
NEW JERSEY

CITY           SKY/WX    TMP DP  RH WIND       PRES   REMARKS
Newark/Liberty CLOUDY    42  36  79 N10       30.02R
Teterboro      CLOUDY    42  36  79 N8        30.02R
Caldwell       CLOUDY    40  36  86 CALM      30.04R
Somerville     CLOUDY    42  36  79 N5        30.01R
Linden         CLOUDY    42  36  80 CALM      30.02R
Sussex         CLOUDY    38  36  92 CALM      30.02R
Andover          N/A     37  36  96 CALM      30.02R
Trenton        CLOUDY    43  38  82 N5        30.02R
Millville      CLOUDY    47  42  83 N7        30.01R
Atlantic City  CLOUDY    44  39  82 N7        30.00R
Wrightstown    CLOUDY    42  38  85 N12       29.99R
Toms River     CLOUDY    41  39  93 N5        30.02R
Belmar         CLOUDY    41  38  89 N8        30.02R
$$

PAZ047>061-062-071-190000-
EASTERN PENNSYLVANIA

CITY           SKY/WX    TMP DP  RH WIND       PRES   REMARKS
Philadelphia   CLOUDY    47  39  74 N8        30.02R
Allentown      CLOUDY    43  38  82 CALM      30.03R
Scranton       CLOUDY    40  38  93 CALM      30.02R
$$

CTZ002-004>006-009-010-012-RIZ004-006-007-MAZ004-011-015-190000-
SOUTHERN NEW ENGLAND
 IN CT

CITY           SKY/WX    TMP DP  RH WIND       PRES   REMARKS
Bradley INTL   CLOUDY    35  34  96 N6        30.03R WCI  30
Hartford       CLOUDY    37  34  89 N8        30.03R WCI  31
Danbury        CLOUDY    38  34  85 N3        30.02R
Wtrbury/Oxford CLOUDY    36  32  87 NE7       30.00R WCI  30
Bridgeport     CLOUDY    42  35  76 N10       30.01R
Meriden        CLOUDY    39  34  82 N5        30.02R
New Haven      CLOUDY    38  35  89 N13       30.01R WCI  30
Chester        CLOUDY    37  36  93 N7G13     29.99R WCI  32
Groton         CLOUDY    40  37  89 N10       29.99R WCI  33
Wilimantic     CLOUDY    37  36  96 N5        30.02R WCI  33

 IN RI

CITY           SKY/WX    TMP DP  RH WIND       PRES   REMARKS
Providence     CLOUDY    40  37  89 N10       30.00R WCI  33
Block Island   NOT AVBL
Westerly       CLOUDY    42  37  82 N6        29.99R HAZE
 IN MA

CITY           SKY/WX    TMP DP  RH WIND       PRES   REMARKS
Boston         LGT RAIN  35  35 100 N9        30.03R FOG     WCI  28
Worcester      FOG       30  29  96 N9        29.99R VSB 1/4 WCI  22
Westfield      CLOUDY    34  34 100 N6        30.03R WCI  29
Provincetown   CLOUDY    40  36  86 E13       30.00R WCI  32
Nantucket      CLOUDY    41  39  93 NE15G24   29.93R
$$

ANZ330-335-338-340-345-350-353-355-190000-
COASTAL MARINE OBSERVATIONS


STATION/POSITION TIME  SKY/WX   TEMP    WIND        PRES    VSBY  WAVE
                                AIR SEA DIR/SP/G                  HT/PER
                 (UTC)          (F)     (DEG/KT/KT) (MB)    (MI)  (FT/S)
NY HARB ENTRANCE 2150            42 44  360/ 16/ 17 1014.7          4/ 7
20 S FIRE ISLAND 2250            41 45  360/ 17/ 21 1014.8          6/ 7
GREAT SOUTH BAY  NOT AVBL
23 SSW MONTAUK P 2150            43 46   40/ 21/ 25 1013.2          7/ 7
15 E BARNEGAT LI 2230               47                N/A           5/ 7
HUDSON CANYON    2150            48 53              1011.2          7/ 8
KINGS POINT      2230            40 38              1016.0
EXECUTION ROCKS  2245            40     340/  6/ 10   N/A
CENTRAL LI SOUND 2230            40     350/ 14/ 16   N/A           1/ 2
EASTERN LI SOUND NOT AVBL
ROBBINS REEF     2230            41     360/  8/ 10 1016.5
$$


>>>>>>>>>>>>>>>>>>>>>>>>>>>> KEY <<<<<<<<<<<<<<<<<<<<<<<<<<<
>                                                          <
>     SKY/WX - Sky Condition/Present Weather               <
>     TMP    - Temperature in Fahrenheit                   <
>     DP     - Dew Point in Fahrenheit                     <
>     RH     - Relative Humidity in Percent                <
>     WIND   - Direction (from) and Speed in MPH           <
>     PRES   - Mean Sea Level Pressure (inches of Hg)      <
>     WCI    - Wind Chill Index                            <
>     VSB    - VISIBILITY IN MILES                         <
>     HX     - HEAT INDEX                                  <
>     TC     - TEMPERATURE IN CELSIUS                      <
>     VRB    - VARIABLE WIND DIRECTION                     <
>                                                          <
>>>>>>>>>>>>>>>>>>>>>>>>>>>> KEY <<<<<<<<<<<<<<<<<<<<<<<<<<<




USA.gov is the U.S. government's official web portal to all federal, state and local government web resources and services.